Location: Bergnershof
(48.9468°N, 10.9431°E)
Time: 16:37:00
(UTC+00:00)

Cosmos 2333 Rocket - Pass Details

Date: 27 June 2021
Orbit: 841 x 861 km, 70.8° (Epoch: 28 July)

Event Time Altitude Azimuth Distance (km) Brightness Sun altitude
Rises 02:09:33 0° 334° (NNW) 3,424 5.7 -8.4°
Reaches altitude 10° 02:13:19 10° 359° (N) 2,481 5.4 -8.0°
Maximum altitude 02:16:19 14° 31° (NNE) 2,181 5.8 -7.7°
Drops below altitude 10° 02:19:18 10° 63° (ENE) 2,470 5.9 -7.4°
Sets 02:23:01 0° 87° (E) 3,400 6.1 -7.0°
